[[{"header":{"parameterUnit":"m.s-1","parameterCategory":1,"la1":30.2991,"la2":30.254,"lo1":-89.0895,"lo2":-89.0444,"dy":0.0017,"dx":0.0017,"nx":28,"ny":28,"refTime":"2024-08-13T09:00:00:Z","depth":0,"parameterNumber":2,"parameterNumberName":"U-component_of_WINDS"},"data":[0,0,0,0,0,0,0,0,0,0,0,0,0,0,0,0,0,0,0,0,0,0,0,0,0,0,0,0,0,0,0,0,0,0,0,0,0,0,0,0,0,0,0,0,0,0,0,0,0,0,0,0,0,0,0,0,0,0,1.6142,1.6142,0,1.6145,1.6145,1.6145,1.6074,1.6072,1.607,1.6068,1.6074,1.6075,1.6077,0,0,0,0,0,0,0,0,0,0,0,0,0,1.6077,1.6078,1.6142,1.6142,1.6142,1.6145,1.6145,1.6145,1.6074,1.6072,1.607,1.6067,1.6073,1.6075,1.6077,0,0,0,0,0,0,0,0,0,0,0,0,0,1.6095,1.6079,1.6142,1.6107,1.6104,1.6145,1.6145,1.6145,1.6075,1.6072,1.6069,1.6066,1.6072,1.6075,1.6078,1.6153,0,0,1.6087,1.6088,0,0,0,0,0,0,0,0,1.6094,1.6097,1.6112,1.611,1.6106,1.6106,1.6124,1.6148,1.6075,1.6086,1.6068,1.6065,1.6087,1.6088,1.6095,1.6153,1.6154,1.6087,1.6089,1.609,1.6091,0,0,0,0,0,0,0,1.6093,1.6097,1.6143,1.6113,1.6109,1.6092,1.6091,1.6128,1.6103,1.6085,1.608,1.6081,1.6085,1.6093,1.6095,1.6154,1.6087,1.6089,1.6091,1.6092,1.6271,1.6273,0,0,0,0,0,0,1.6096,1.6096,1.6143,1.6143,1.6093,1.6095,1.6094,1.6109,1.6102,1.6098,1.6083,1.6077,1.6089,1.6092,1.6095,1.618,1.609,1.6093,1.6094,1.6268,1.6271,1.6275,0,0,0,0,0,0,1.6095,1.6101,1.6143,1.6118,1.6122,1.6099,1.6116,1.6111,1.6118,1.6101,1.6096,1.6096,1.6087,1.6091,1.6138,1.6179,1.6094,1.6096,1.6264,1.6269,1.6273,1.6352,0,0,0,0,0,0,1.6093,1.6101,1.6129,1.612,1.6124,1.6186,1.6119,1.6113,1.6123,1.6116,1.6111,1.6108,1.6085,1.6134,1.6141,1.6181,1.6099,1.626,1.6266,1.6271,1.6346,1.6359,1.637,0,0,0,0,0,1.6091,1.6153,1.6131,1.6137,1.6159,1.6189,1.6191,1.6163,1.6127,1.6155,1.6143,1.6108,1.6174,1.614,1.6147,1.6189,1.6258,1.6264,1.6271,1.634,1.6356,1.637,0,0,0,0,0,0,1.6169,1.6151,1.6127,1.6187,1.619,1.6177,1.6211,1.6181,1.6196,1.6188,1.6153,1.6153,1.6205,1.6202,1.6164,1.626,1.6209,1.6218,1.626,1.6275,1.6287,1.6285,1.6101,0,0,0,0,0,1.6193,1.6219,1.6202,1.6256,1.6259,1.6235,1.6247,1.6225,1.6227,1.6228,1.622,1.6224,1.6245,1.626,1.6279,1.6346,1.6342,1.6378,1.639,1.64,1.6407,1.644,1.6454,1.6297,1.6297,1.6297,0,0,1.6243,1.6236,1.6255,1.6271,1.6271,1.6298,1.6237,1.6269,1.6288,1.6233,1.6276,1.6271,1.6273,1.633,1.6354,1.6329,1.645,1.6409,1.6417,1.6418,1.6448,1.6463,1.6476,1.6301,1.63,1.63,0,0,1.6347,1.6346,1.6389,1.639,1.639,1.6373,1.6384,1.6375,1.6369,1.6412,1.637,1.6394,1.6432,1.6434,1.644,1.6544,1.6511,1.6551,1.6614,1.6646,1.6658,1.6669,1.6703,1.6717,1.6559,1.6559,1.6559,0,1.6409,1.6448,1.6416,1.6449,1.6457,1.6408,1.6451,1.6454,1.6461,1.6467,1.6438,1.6483,1.6482,1.6537,1.6561,1.6569,1.6579,1.6551,1.6659,1.6669,1.6679,1.6711,1.6725,1.6564,1.6563,1.6563,1.6562,0,1.6523,1.655,1.6586,1.6591,1.6603,1.6642,1.6616,1.6632,1.6609,1.6595,1.6639,1.6635,1.665,1.6662,1.6641,1.6714,1.6698,1.6665,1.6613,1.6699,1.6729,1.6741,1.657,1.6569,1.6567,1.6566,0,0,1.6676,1.6662,1.6675,1.6676,1.6671,1.6692,1.6728,1.6742,1.6756,1.6762,1.679,1.6823,1.6792,1.6799,1.6777,1.6806,1.6885,1.6769,1.6768,1.6788,1.6962,1.6985,1.7,1.6864,1.6866,1.6868,1.6961,0,1.6774,1.6834,1.6805,1.6868,1.6891,1.6845,1.6876,1.6877,1.6865,1.6884,1.6871,1.6894,1.6852,1.6855,1.6882,1.687,1.6919,1.6863,1.6889,1.689,1.6887,1.7016,1.7041,1.713,1.6973,1.6975,1.6976,0,1.6897,1.6906,1.6971,1.696,1.6968,1.6997,1.7006,1.7025,1.7025,1.7014,1.7022,1.6993,1.7027,1.6977,1.7023,1.6986,1.6995,1.6991,1.6993,1.6993,1.6937,1.7017,1.7157,1.717,1.6995,1.6994,1.6992,0,1.6999,1.7028,1.7069,1.7071,1.706,1.7081,1.7078,1.7074,1.7084,1.7093,1.7098,1.7112,1.7119,1.7131,1.7106,1.7073,1.7155,1.7104,1.7146,1.7147,1.7164,1.7163,1.7305,1.7174,1.7174,1.7174,1.7174,0,1.711,1.7151,1.7114,1.7139,1.7183,1.715,1.7195,1.7186,1.7183,1.7206,1.7168,1.719,1.7158,1.7177,1.7159,1.7198,1.7202,1.7194,1.7188,1.7196,1.7197,1.72,1.7192,1.7177,1.7177,1.7176,1.7175,0,1.723,1.7207,1.7249,1.7234,1.7231,1.7264,1.7252,1.7274,1.726,1.7289,1.7294,1.7272,1.7292,1.7269,1.7289,1.7276,1.7329,1.7315,1.7328,1.7323,1.7366,1.7361,1.7513,1.7531,1.7392,1.7393,1.7394,0,1.7302,1.7331,1.7319,1.7331,1.7329,1.7349,1.7358,1.7328,1.7338,1.7339,1.7362,1.7378,1.739,1.7425,1.741,1.7424,1.7409,1.7462,1.7411,1.7417,1.7407,1.7405,1.7406,1.7471,1.7473,1.7475,1.7476,0,1.743,1.7417,1.7431,1.744,1.7451,1.7458,1.7461,1.7474,1.7441,1.7456,1.7475,1.7484,1.7502,1.7519,1.7529,1.7525,1.7495,1.7492,1.7502,1.7509,1.7514,1.7509,1.7353,1.7488,1.7487,1.7486,1.7485,1.7485,1.7526,1.7549,1.7543,1.756,1.7559,1.7563,1.7582,1.7569,1.7585,1.7596,1.7578,1.7601,1.7599,1.7608,1.7609,1.7627,1.7605,1.762,1.7623,1.7627,1.7632,1.7513,1.7629,1.7629,1.7628,1.7628,1.7628,0,1.765,1.7644,1.7659,1.7664,1.7676,1.7646,1.7648,1.766,1.7681,1.7681,1.7693,1.7714,1.773,1.7717,1.7729,1.7747,1.7733,1.7751,1.7748,1.7747,1.7653,1.7641,1.7761,1.7761,1.7761,1.7761,1.7761,1.7761,1.7716,1.7752,1.7738,1.7774,1.7767,1.7789,1.7792,1.7795,1.7794,1.782,1.7832,1.7823,1.7817,1.7829,1.7842,1.7837,1.7843,1.7865,1.7856,1.7768,1.7754,1.7742,1.7731,1.7867,1.7868,1.7948,1.7949,1.795]},{"header":{"parameterUnit":"m.s-1","parameterCategory":1,"la1":30.2991,"la2":30.254,"lo1":-89.0895,"lo2":-89.0444,"dy":0.0017,"dx":0.0017,"nx":28,"ny":28,"refTime":"2024-08-13T09:00:00:Z","depth":0,"parameterNumber":3,"parameterNumberName":"V-component_of_WINDS"},"data":[0,0,0,0,0,0,0,0,0,0,0,0,0,0,0,0,0,0,0,0,0,0,0,0,0,0,0,0,0,0,0,0,0,0,0,0,0,0,0,0,0,0,0,0,0,0,0,0,0,0,0,0,0,0,0,0,0,0,1.8379,1.8379,0,1.8411,1.8412,1.8412,1.8355,1.8353,1.8351,1.8349,1.838,1.8383,1.8385,0,0,0,0,0,0,0,0,0,0,0,0,0,1.8263,1.8266,1.8379,1.8379,1.838,1.8411,1.8412,1.8412,1.8355,1.8353,1.835,1.8348,1.8379,1.8382,1.8386,0,0,0,0,0,0,0,0,0,0,0,0,0,1.8307,1.8267,1.8379,1.8355,1.8353,1.8411,1.8412,1.8412,1.8356,1.8353,1.835,1.8347,1.8378,1.8382,1.8386,1.8468,0,0,1.8398,1.84,0,0,0,0,0,0,0,0,1.8304,1.8311,1.8358,1.8357,1.8355,1.8376,1.8382,1.8431,1.8356,1.8355,1.8349,1.8346,1.8381,1.8385,1.8397,1.8469,1.8471,1.8398,1.8401,1.8402,1.8404,0,0,0,0,0,0,0,1.8301,1.8309,1.8392,1.8359,1.8357,1.8342,1.8344,1.8391,1.8384,1.8355,1.8351,1.8355,1.838,1.8393,1.8397,1.8471,1.8398,1.8402,1.8404,1.8406,1.8611,1.8614,0,0,0,0,0,0,1.8302,1.8307,1.8391,1.8393,1.8322,1.8346,1.8349,1.8372,1.8383,1.8382,1.8358,1.8352,1.8388,1.8393,1.8398,1.8494,1.8402,1.8406,1.8408,1.8608,1.8611,1.8615,0,0,0,0,0,0,1.8299,1.831,1.8389,1.8349,1.8358,1.8351,1.8377,1.8374,1.8388,1.8385,1.8383,1.8373,1.8386,1.8393,1.8451,1.8494,1.8408,1.8411,1.8604,1.8609,1.8613,1.8687,0,0,0,0,0,0,1.8296,1.8309,1.8341,1.835,1.836,1.8443,1.838,1.8377,1.8395,1.8389,1.84,1.8398,1.8384,1.8445,1.8455,1.8498,1.8414,1.86,1.8606,1.8612,1.8681,1.8693,1.8705,0,0,0,0,0,1.8292,1.8361,1.8343,1.8354,1.84,1.8446,1.8451,1.8434,1.8399,1.843,1.8428,1.8398,1.8488,1.8452,1.8462,1.8507,1.8597,1.8604,1.8611,1.8675,1.8691,1.8704,0,0,0,0,0,0,1.8357,1.8361,1.8342,1.8415,1.8431,1.8436,1.8475,1.8451,1.8476,1.8469,1.8446,1.8449,1.8511,1.8515,1.8474,1.8586,1.8537,1.8546,1.8582,1.8597,1.8608,1.8606,1.8418,0,0,0,0,0,1.838,1.8417,1.8418,1.8483,1.8491,1.8482,1.8501,1.8487,1.8501,1.8507,1.8509,1.8523,1.8554,1.8576,1.8604,1.868,1.8681,1.8716,1.8728,1.8738,1.8747,1.8786,1.8801,1.8638,1.8638,1.8637,0,0,1.8427,1.8434,1.8459,1.8496,1.8506,1.8544,1.8488,1.8531,1.8558,1.8513,1.8568,1.857,1.8585,1.8652,1.8682,1.8657,1.8792,1.8747,1.8755,1.8758,1.8794,1.881,1.8824,1.8642,1.8641,1.8641,0,0,1.8533,1.8542,1.8597,1.8608,1.8623,1.8617,1.863,1.8638,1.8638,1.8693,1.8659,1.8691,1.8746,1.8757,1.877,1.8878,1.8851,1.8888,1.8951,1.8989,1.9002,1.9014,1.9051,1.9065,1.8896,1.8897,1.8897,0,1.8589,1.8647,1.8627,1.8672,1.8689,1.865,1.8703,1.8715,1.8739,1.8751,1.8723,1.879,1.8797,1.8865,1.8892,1.8904,1.8917,1.8887,1.9002,1.9013,1.9023,1.9059,1.9074,1.8901,1.89,1.89,1.89,0,1.8715,1.8755,1.8796,1.8821,1.8842,1.8892,1.8878,1.8902,1.8885,1.8881,1.8936,1.8943,1.8972,1.8987,1.8971,1.9053,1.9037,1.9006,1.8956,1.9044,1.9077,1.9091,1.8907,1.8906,1.8904,1.8903,0,0,1.8863,1.8876,1.8891,1.8901,1.8915,1.8945,1.8992,1.9021,1.9041,1.9058,1.9096,1.9143,1.9113,1.9128,1.9113,1.9147,1.9231,1.9111,1.9111,1.9133,1.9321,1.9344,1.936,1.9213,1.9215,1.9217,1.9319,0,1.8967,1.9049,1.9032,1.9112,1.9147,1.911,1.915,1.9162,1.9159,1.9188,1.9184,1.9217,1.9177,1.9185,1.9217,1.9214,1.9268,1.9206,1.9247,1.9248,1.9244,1.9378,1.9403,1.9499,1.9332,1.9334,1.9336,0,1.9101,1.9124,1.9207,1.9214,1.9228,1.9265,1.9289,1.9318,1.933,1.9325,1.9341,1.9319,1.9363,1.9313,1.9373,1.9332,1.9347,1.9348,1.9351,1.9354,1.9298,1.9384,1.953,1.9544,1.9356,1.9355,1.9353,0,1.92,1.9251,1.9307,1.9317,1.9327,1.9353,1.9359,1.9368,1.9386,1.9407,1.9418,1.9443,1.9457,1.9477,1.9462,1.9426,1.9525,1.9473,1.9521,1.9521,1.9544,1.9542,1.9693,1.9554,1.9554,1.9553,1.9553,0,1.9318,1.937,1.9352,1.9386,1.9443,1.9422,1.9479,1.9479,1.9488,1.9521,1.949,1.9521,1.9499,1.9528,1.9516,1.9568,1.9574,1.9571,1.9567,1.9574,1.9574,1.9583,1.9576,1.9557,1.9556,1.9556,1.9555,0,1.9438,1.9428,1.9487,1.9491,1.9493,1.9535,1.9538,1.9569,1.9563,1.9605,1.9614,1.9604,1.9637,1.9623,1.9658,1.9649,1.9716,1.9703,1.9712,1.9708,1.9757,1.9753,1.9919,1.994,1.9788,1.9789,1.979,0,1.9515,1.9554,1.9562,1.9582,1.959,1.9623,1.9641,1.9621,1.9641,1.9658,1.9687,1.9717,1.974,1.9793,1.9789,1.9815,1.9802,1.9859,1.9806,1.9811,1.9802,1.98,1.9804,1.9869,1.9871,1.9873,1.9874,0,1.9651,1.9643,1.9671,1.9697,1.9719,1.9739,1.9755,1.9773,1.9754,1.9777,1.9811,1.9829,1.9863,1.9893,1.9916,1.9919,1.9894,1.989,1.9903,1.991,1.9913,1.9912,1.974,1.9887,1.9885,1.9884,1.9884,1.9883,1.9751,1.9784,1.9795,1.9826,1.9836,1.9852,1.9881,1.9879,1.9906,1.9934,1.992,1.9959,1.9968,1.9996,2.0003,2.0032,2.001,2.0028,2.0033,2.0038,2.0044,1.9909,2.0036,2.0036,2.0036,2.0035,2.0035,0,1.9885,1.989,1.9919,1.9943,1.9967,1.9941,1.9957,1.9979,2.0013,2.0025,2.0048,2.0086,2.0114,2.0112,2.0137,2.0161,2.015,2.0168,2.0166,2.0168,2.0063,2.0049,2.0177,2.0177,2.0177,2.0177,2.0177,2.0177,1.9958,2.0011,2.0005,2.0063,2.0067,2.0105,2.0116,2.013,2.0139,2.0183,2.0207,2.0205,2.021,2.0236,2.0261,2.0259,2.027,2.0293,2.0287,2.0189,2.0175,2.0162,2.0149,2.0296,2.0296,2.039,2.0391,2.0391]}]]